This demonstration page uses our WeatherBlox Daily Observations layout. Learn more.

Left ArrowRight Arrow

Hourly Observations for September 12, 2020

Temp ( °F °C ) Dew Point ( °F °C ) Humidity (%) Winds ( mph kmh ) Pressure ( in mb ) Visibility ( mi km ) Precip ( " mm )
12:19 am 00:19 Mostly Cloudy 55 12.8 52 11.1 90 90 WSW 3 6 30.04 1017 9 14.48406 0 0
12:54 am 00:54 Cloudy 55 12.8 53 11.7 93 93 SSW 6 9 30.02 1017 8 12.87472 0 0
1:54 am 01:54 Cloudy 56 13.3 53 11.7 90 90 S 8 13 29.99 1016 10 16.0934 0 0
2:09 am 02:09 Cloudy 56 13.3 53 11.7 90 90 SW 7 11 30.01 1016 10 16.0934 0 0
2:54 am 02:54 Cloudy 56 13.3 53 11.7 90 90 SW 7 11 29.98 1015 10 16.0934 0 0
3:54 am 03:54 Cloudy 55 12.8 52 11.1 90 90 SW 12 19 29.97 1015 10 16.0934 0 0
4:01 am 04:01 Cloudy 55 12.8 52 11.1 90 90 SSW 9 15 29.98 1015 7 11.26538 0 0
4:54 am 04:54 Cloudy 55 12.8 52 11.1 90 90 SSW 6 9 29.96 1015 8 12.87472 0 0
5:54 am 05:54 Cloudy 55 12.8 53 11.7 93 93 SSW 6 9 29.96 1014 9 14.48406 0 0
6:15 am 06:15 Cloudy 56 13.3 53 11.7 90 90 S 6 9 29.97 1015 10 16.0934 0 0
6:54 am 06:54 Cloudy 56 13.3 53 11.7 90 90 SSW 3 6 29.96 1015 9 14.48406 0 0
7:54 am 07:54 Cloudy 57 13.9 54 12.2 90 90 SSW 5 7 29.96 1015 8 12.87472 0 0
8:54 am 08:54 Cloudy with Mist and Fog 57 13.9 55 12.8 93 93 S 7 11 29.95 1014 6 9.65604 0 0
9:54 am 09:54 Cloudy 59 15 55 12.8 87 87 SW 7 11 29.95 1014 8 12.87472 0 0
10:08 am 10:08 Cloudy 60 15.6 55 12.8 84 84 SW 6 9 29.96 1014 8 12.87472 0 0
10:20 am 10:20 Cloudy 60 15.6 55 12.8 84 84 SW 5 7 29.96 1014 9 14.48406 0 0
10:35 am 10:35 Cloudy 61 16.1 55 12.8 81 81 Calm 29.95 1014 8 12.87472 0 0
10:54 am 10:54 Cloudy 62 16.7 54 12.2 75 75 W 7 11 29.96 1015 9 14.48406 0 0
11:40 am 11:40 Partly Cloudy 66 18.9 55 12.8 68 68 Calm 29.93 1014 9 14.48406 0 0
11:54 am 11:54 Partly Cloudy 66 18.9 54 12.2 65 65 WSW 6 9 29.94 1014 9 14.48406 0 0
12:54 pm 12:54 Mostly Sunny 70 21.1 53 11.7 55 55 VRB 3 6 29.92 1013 9 14.48406 0 0
1:54 pm 13:54 Partly Cloudy 74 23.3 48 8.9 40 40 WNW 14 22 29.91 1013 10 16.0934 0 0
2:54 pm 14:54 Mostly Cloudy 76 24.4 48 8.9 37 37 WNW 14 22 29.9 1013 10 16.0934 0 0
3:54 pm 15:54 Mostly Cloudy 75 23.9 50 10 41 41 WNW 17 28 29.91 1013 10 16.0934 0 0
4:54 pm 16:54 Mostly Sunny 74 23.3 48 8.9 40 40 WNW 16 26 29.92 1013 10 16.0934 0 0
5:54 pm 17:54 Mostly Sunny 74 23.3 49 9.4 41 41 WNW 15 24 29.94 1014 10 16.0934 0 0
6:54 pm 18:54 Sunny 71 21.7 50 10 47 47 N 12 19 29.96 1015 10 16.0934 0 0
7:54 pm 19:54 Clear 64 17.8 50 10 60 60 Calm 29.97 1015 10 16.0934 0 0
8:54 pm 20:54 Clear 59 15 51 10.6 75 75 WNW 3 6 30 1016 10 16.0934 0 0
9:54 pm 21:54 Clear 56 13.3 51 10.6 84 84 Calm 30.03 1017 10 16.0934 0 0
10:54 pm 22:54 Clear 55 12.8 50 10 83 83 Calm 30.04 1017 10 16.0934 0 0
11:54 pm 23:54 Clear 52 11.1 49 9.4 89 89 N 3 6 30.05 1018 10 16.0934 0 0

Powered by AerisWeather